Regional Weather Roundup
Issued by NWS Boston, MA

Home | Current Version | Previous Version | Text Only | Print | Product List | Glossary On
Versions: 1 2 3 4 5 6 7 8 9 10 11 12 13 14 15 16 17 18 19 20 21 22 23 24 25 26 27 28 29 30 31 32 33 34 35 36 37 38 39 40 41 42 43 44 45 46 47 48 49 50
000
ASUS41 KBOX 302010
RWRBOX

REGIONAL WEATHER ROUNDUP
NATIONAL WEATHER SERVICE TAUNTON MA
400 PM EDT WED JUL 30 2014

NOTE:  "FAIR" INDICATES FEW OR NO CLOUDS BELOW 12,000 FEET WITH NO
SIGNIFICANT WEATHER AND/OR OBSTRUCTIONS TO VISIBILITY.  THE FOLLOWING
OBSERVATION LOCATIONS DO NOT REPORT PRESENT WEATHER...PROVINCETOWN...
SMITHFIELD...BLOCK ISLAND...KEENE...AND OXFORD.

MAZALL-302100-
EASTERN MASSACHUSETTS

CITY           SKY/WX    TMP DP  RH WIND       PRES   REMARKS
BOSTON         MOSUNNY   73  57  57 E9        29.98S
BEVERLY        PTSUNNY   72  56  57 SE7       29.97F
LAWRENCE       CLOUDY    75  55  49 E6        29.99S
BEDFORD        SUNNY     76  50  40 SW7       29.97S
BLUE HILL        N/A     76  52  43 W12       29.99S
NORWOOD        PTSUNNY   78  51  38 W7        29.97F
MARSHFIELD     MOSUNNY   73  61  64 NE8       30.00R
PLYMOUTH       SUNNY     78  49  35 SW9       29.98F
TAUNTON        PTSUNNY   77  53  43 SW6       29.98S
NEW BEDFORD    SUNNY     78  56  46 S14       29.98S
$$

MAZALL-302100-
CAPE COD AND THE ISLANDS

CITY           SKY/WX    TMP DP  RH WIND       PRES   REMARKS
FALMOUTH       SUNNY     77  54  44 SW12      29.99S
HYANNIS        SUNNY     78  53  41 SW13G21   29.98R
CHATHAM        SUNNY     77  60  55 SW8G17    30.00S
PROVINCETOWN   SUNNY     79  54  41 S7        29.99S
NANTUCKET      SUNNY     74  58  57 SW12      30.01R
MARTHAS VNYRD  SUNNY     75  57  53 SW13      30.00S
$$

MAZALL-302100-
CENTRAL AND WESTERN MASSACHUSETTS

CITY           SKY/WX    TMP DP  RH WIND       PRES   REMARKS
WORCESTER      SUNNY     73  47  39 W5        30.01S
FITCHBURG      SUNNY     78  49  35 SW8       29.99F
ORANGE         MOSUNNY   74  47  38 W6        30.00R
SPRINGFIELD    PTSUNNY   76  52  43 W7        29.98F
WESTFIELD      MOSUNNY   78  49  35 S8        29.98F
NORTH ADAMS    MOSUNNY   73  49  42 VRB3      30.00R
PITTSFIELD     MOSUNNY   72  48  42 VRB6      30.01S
$$

RIZALL-302100-
RHODE ISLAND

CITY           SKY/WX    TMP DP  RH WIND       PRES   REMARKS
PROVIDENCE     PTSUNNY   78  54  43 SW8       29.99S
NEWPORT        SUNNY     75  53  46 S14       30.00S
BLOCK ISLAND   SUNNY     75  55  50 SW10      30.02S
SMITHFIELD     MOSUNNY   75  48  38 SW5       29.99F
WESTERLY       SUNNY     76  55  48 S10       30.01S
$$

CTZALL-302100-
CONNECTICUT

CITY           SKY/WX    TMP DP  RH WIND       PRES   REMARKS
BRADLEY INTL   PTSUNNY   78  47  33 W7        29.98S
HARTFORD       PTSUNNY   78  46  32 VRB6      29.98S
BRIDGEPORT     SUNNY     79  53  40 S13       30.00S
DANBURY        MOSUNNY   75  49  39 SW7       30.02S
GROTON         MOSUNNY   73  59  61 S9        30.00S
NEW HAVEN      MOSUNNY   79  58  48 S7        30.01R
CHESTER        PTSUNNY   75  52  43 S7        30.01S
MERIDEN        PTSUNNY   79  49  34 SW6       29.99S
WILLIMANTIC    MOSUNNY   76  50  40 W5        29.99F
OXFORD         MOSUNNY   73  50  43 NW7       30.04S
$$

MEZ002-015-021-024-NHZ003-005-008-011-012-014-VTZ005-008-302100-
NORTHERN NEW ENGLAND

CITY           SKY/WX    TMP DP  RH WIND       PRES   REMARKS
PORTLAND ME    PTSUNNY   69  62  78 SE9       29.98S
BANGOR ME      CLOUDY    75  59  57 S10       29.98S
CONCORD NH     PTSUNNY   76  50  40 VRB5      29.98S
MANCHESTER NH  PTSUNNY   76  52  43 VRB6      29.97S
NASHUA NH      PTSUNNY   75  55  49 NW7       29.99R
PORTSMOUTH NH  PTSUNNY   73  60  64 S8        29.97S
JAFFREY NH     CLOUDY    71  51  49 W5        30.01S
KEENE NH       PTSUNNY   73  48  40 SW7       30.00S
BURLINGTON VT  MOSUNNY   76  48  37 S9        29.95F
MT. WASHINGTON PTSUNNY   46  41  81 W9          N/A
$$

NYZ052-076-302100-
EASTERN NEW YORK

CITY           SKY/WX    TMP DP  RH WIND       PRES   REMARKS
ALBANY         PTSUNNY   76  53  44 VRB5      29.98F
NEW YORK CITY  MOSUNNY   80  45  28 W9        29.99F
$$

ANZALL-302100-
MARINE OBSERVATIONS

STATION/POSITION TIME  TEMP    WIND        PRES    VSBY  WAVE
                       AIR SEA DIR/SP/G                  HT/PER
                 (UTC) (F)     (DEG/KT/KT) (MB)    (MI)  (FT/S)
BOSTON BUOY      NOT AVBL
BUZZARDS BAY     NOT AVBL
NANTUCKET SOUND  NOT AVBL
MASS BAY-STELLWA NOT AVBL
ISLE OF SHOALS   NOT AVBL
S OF BLOCK IS    NOT AVBL
$$

......................KEY.........................
  SKY/WX - SKY CONDITION/PRESENT WEATHER
  TMP    - TEMPERATURE IN FAHRENHEIT
  DWPT   - DEWPOINT IN FAHRENHEIT
  RH     - RELATIVE HUMIDITY IN PERCENT
  WIND   - DIRECTION AND SPEED IN MPH
  PRES   - MEAN SEA LEVEL PRESSURE IN INCHES OF HG
  WCI    - WIND CHILL INDEX
  VSB    - VISIBILITY IN MILES
  HX     - HEAT INDEX
  TC     - TEMPERATURE IN CELSIUS
  VRB    - VARIABLE WIND DIRECTION
  N/A    - NOT AVAILABLE


USA.gov is the U.S. government's official web portal to all federal, state and local government web resources and services.